Year,Month,Day,Hour,Minute,Value (Times are PST for temperature in C)
2007,10,22,00,00,8.80
2007,10,22,00,01,8.80
2007,10,22,00,02,8.80
2007,10,22,00,03,8.80
2007,10,22,00,04,8.80
2007,10,22,00,05,8.80
2007,10,22,00,06,8.80
2007,10,22,00,07,8.80
2007,10,22,00,08,8.80
2007,10,22,00,09,8.80
2007,10,22,00,10,8.80
2007,10,22,00,11,8.80
2007,10,22,00,12,8.80
2007,10,22,00,13,8.80
2007,10,22,00,14,8.80
2007,10,22,00,15,8.80
2007,10,22,00,16,8.80
2007,10,22,00,17,8.80
2007,10,22,00,18,8.80
2007,10,22,00,19,8.80
2007,10,22,00,20,8.80
2007,10,22,00,21,8.80
2007,10,22,00,22,8.80
2007,10,22,00,23,8.80
2007,10,22,00,24,8.80
2007,10,22,00,25,8.80
2007,10,22,00,26,8.80
2007,10,22,00,27,8.80
2007,10,22,00,28,8.80
2007,10,22,00,29,8.80
2007,10,22,00,30,8.80
2007,10,22,00,31,8.80
2007,10,22,00,32,8.80
2007,10,22,00,33,8.80
2007,10,22,00,34,8.80
2007,10,22,00,35,8.80
2007,10,22,00,36,8.80
2007,10,22,00,37,8.80
2007,10,22,00,38,8.80
2007,10,22,00,39,8.80
2007,10,22,00,40,8.80
2007,10,22,00,41,8.80
2007,10,22,00,42,8.80
2007,10,22,00,43,8.80
2007,10,22,00,44,8.80
2007,10,22,00,45,8.80
2007,10,22,00,46,8.80
2007,10,22,00,47,8.80
2007,10,22,00,48,8.80
2007,10,22,00,49,8.80
2007,10,22,00,50,8.80
2007,10,22,00,51,8.80
2007,10,22,00,52,8.80
2007,10,22,00,53,8.80
2007,10,22,00,54,8.80
2007,10,22,00,55,8.80
2007,10,22,00,56,8.80
2007,10,22,00,57,8.80
2007,10,22,00,58,8.80
2007,10,22,00,59,8.80
2007,10,22,01,00,8.80
2007,10,22,01,01,8.80
2007,10,22,01,02,8.80
2007,10,22,01,03,8.80
2007,10,22,01,04,8.80
2007,10,22,01,05,8.80
2007,10,22,01,06,8.80
2007,10,22,01,07,8.80
2007,10,22,01,08,8.80
2007,10,22,01,09,8.80
2007,10,22,01,10,8.80
2007,10,22,01,11,8.80
2007,10,22,01,12,8.80
2007,10,22,01,13,8.80
2007,10,22,01,14,8.80
2007,10,22,01,15,8.80
2007,10,22,01,16,8.80
2007,10,22,01,17,8.80
2007,10,22,01,18,8.80
2007,10,22,01,19,8.80
2007,10,22,01,20,8.80
2007,10,22,01,21,8.80
2007,10,22,01,22,8.80
2007,10,22,01,23,8.80
2007,10,22,01,24,8.80
2007,10,22,01,25,8.80
2007,10,22,01,26,8.80
2007,10,22,01,27,8.80
2007,10,22,01,28,8.80
2007,10,22,01,29,8.80
2007,10,22,01,30,8.80
2007,10,22,01,31,8.80
2007,10,22,01,32,8.80
2007,10,22,01,33,8.80
2007,10,22,01,34,8.80
2007,10,22,01,35,8.80
2007,10,22,01,36,8.80
2007,10,22,01,37,8.80
2007,10,22,01,38,8.80
2007,10,22,01,39,8.80
2007,10,22,01,40,8.80
2007,10,22,01,41,8.80
2007,10,22,01,42,8.80
2007,10,22,01,43,8.80
2007,10,22,01,44,8.80
2007,10,22,01,45,8.80
2007,10,22,01,46,8.80
2007,10,22,01,47,8.80
2007,10,22,01,48,8.80
2007,10,22,01,49,8.80
2007,10,22,01,50,8.80
2007,10,22,01,51,8.80
2007,10,22,01,52,8.80
2007,10,22,01,53,8.80
2007,10,22,01,54,8.80
2007,10,22,01,55,8.80
2007,10,22,01,56,8.80
2007,10,22,01,57,8.80
2007,10,22,01,58,8.80
2007,10,22,01,59,8.80
2007,10,22,02,00,8.80
2007,10,22,02,01,8.80
2007,10,22,02,02,8.80
2007,10,22,02,03,8.80
2007,10,22,02,04,8.80
2007,10,22,02,05,8.90
2007,10,22,02,06,8.90
2007,10,22,02,07,8.90
2007,10,22,02,08,8.90
2007,10,22,02,09,8.90
2007,10,22,02,10,8.90
2007,10,22,02,11,8.90
2007,10,22,02,12,8.90
2007,10,22,02,13,8.90
2007,10,22,02,14,8.90
2007,10,22,02,15,8.90
2007,10,22,02,16,8.90
2007,10,22,02,17,8.90
2007,10,22,02,18,8.90
2007,10,22,02,19,8.90
2007,10,22,02,20,8.90
2007,10,22,02,21,8.90
2007,10,22,02,22,8.90
2007,10,22,02,23,8.90
2007,10,22,02,24,8.90
2007,10,22,02,25,8.90
2007,10,22,02,26,8.90
2007,10,22,02,27,8.90
2007,10,22,02,28,8.90
2007,10,22,02,29,8.90
2007,10,22,02,30,8.90
2007,10,22,02,31,8.90
2007,10,22,02,32,8.90
2007,10,22,02,33,8.80
2007,10,22,02,34,8.90
2007,10,22,02,35,8.80
2007,10,22,02,36,8.80
2007,10,22,02,37,8.80
2007,10,22,02,38,8.80
2007,10,22,02,39,8.80
2007,10,22,02,40,8.80
2007,10,22,02,41,8.80
2007,10,22,02,42,8.80
2007,10,22,02,43,8.80
2007,10,22,02,44,8.80
2007,10,22,02,45,8.90
2007,10,22,02,46,8.80
2007,10,22,02,47,8.90
2007,10,22,02,48,8.80
2007,10,22,02,49,8.80
2007,10,22,02,50,8.80
2007,10,22,02,51,8.90
2007,10,22,02,52,8.90
2007,10,22,02,53,8.80
2007,10,22,02,54,8.80
2007,10,22,02,55,8.90
2007,10,22,02,56,8.90
2007,10,22,02,57,8.80
2007,10,22,02,58,8.90
2007,10,22,02,59,8.90
2007,10,22,03,00,8.90
2007,10,22,03,01,8.90
2007,10,22,03,02,8.90
2007,10,22,03,03,8.90
2007,10,22,03,04,8.80
2007,10,22,03,05,8.90
2007,10,22,03,06,8.90
2007,10,22,03,07,8.80
2007,10,22,03,08,8.80
2007,10,22,03,09,8.80
2007,10,22,03,10,8.80
2007,10,22,03,11,8.80
2007,10,22,03,12,8.90
2007,10,22,03,13,8.80
2007,10,22,03,14,8.80
2007,10,22,03,15,8.80
2007,10,22,03,16,8.90
2007,10,22,03,17,8.90
2007,10,22,03,18,8.80
2007,10,22,03,19,8.80
2007,10,22,03,20,8.80
2007,10,22,03,21,8.90
2007,10,22,03,22,8.80
2007,10,22,03,23,8.80
2007,10,22,03,24,8.80
2007,10,22,03,25,8.80
2007,10,22,03,26,8.80
2007,10,22,03,27,8.80
2007,10,22,03,28,8.80
2007,10,22,03,29,8.80
2007,10,22,03,30,8.80
2007,10,22,03,31,8.80
2007,10,22,03,32,8.80
2007,10,22,03,33,8.80
2007,10,22,03,34,8.80
2007,10,22,03,35,8.80
2007,10,22,03,36,8.80
2007,10,22,03,37,8.80
2007,10,22,03,38,8.80
2007,10,22,03,39,8.80
2007,10,22,03,40,8.90
2007,10,22,03,41,8.90
2007,10,22,03,42,8.90
2007,10,22,03,43,8.90
2007,10,22,03,44,8.90
2007,10,22,03,45,8.90
2007,10,22,03,46,8.90
2007,10,22,03,47,8.90
2007,10,22,03,48,8.90
2007,10,22,03,49,8.90
2007,10,22,03,50,8.90
2007,10,22,03,51,8.90
2007,10,22,03,52,8.90
2007,10,22,03,53,8.90
2007,10,22,03,54,8.90
2007,10,22,03,55,8.90
2007,10,22,03,56,8.90
2007,10,22,03,57,8.90
2007,10,22,03,58,8.90
2007,10,22,03,59,8.90
2007,10,22,04,00,8.90
2007,10,22,04,01,8.90
2007,10,22,04,02,8.90
2007,10,22,04,03,8.90
2007,10,22,04,04,8.90
2007,10,22,04,05,8.90
2007,10,22,04,06,8.90
2007,10,22,04,07,8.90
2007,10,22,04,08,8.90
2007,10,22,04,09,8.90
2007,10,22,04,10,8.90
2007,10,22,04,11,8.90
2007,10,22,04,12,8.90
2007,10,22,04,13,8.90
2007,10,22,04,14,8.90
2007,10,22,04,15,8.90
2007,10,22,04,16,8.90
2007,10,22,04,17,8.90
2007,10,22,04,18,8.90
2007,10,22,04,19,8.90
2007,10,22,04,20,8.90
2007,10,22,04,21,8.90
2007,10,22,04,22,8.90
2007,10,22,04,23,8.90
2007,10,22,04,24,8.90
2007,10,22,04,25,8.90
2007,10,22,04,26,8.90
2007,10,22,04,27,8.90
2007,10,22,04,28,8.90
2007,10,22,04,29,8.90
2007,10,22,04,30,8.90
2007,10,22,04,31,8.90
2007,10,22,04,32,8.90
2007,10,22,04,33,8.90
2007,10,22,04,34,8.90
2007,10,22,04,35,8.90
2007,10,22,04,36,8.90
2007,10,22,04,37,8.90
2007,10,22,04,38,8.90
2007,10,22,04,39,8.90
2007,10,22,04,40,8.90
2007,10,22,04,41,8.90
2007,10,22,04,42,8.90
2007,10,22,04,43,8.90
2007,10,22,04,44,8.90
2007,10,22,04,45,8.90
2007,10,22,04,46,8.90
2007,10,22,04,47,8.90
2007,10,22,04,48,9.00
2007,10,22,04,49,9.00
2007,10,22,04,50,9.00
2007,10,22,04,51,9.00
2007,10,22,04,52,9.00
2007,10,22,04,53,9.00
2007,10,22,04,54,9.00
2007,10,22,04,55,9.00
2007,10,22,04,56,9.00
2007,10,22,04,57,9.00
2007,10,22,04,58,9.00
2007,10,22,04,59,9.00
2007,10,22,05,00,9.00
2007,10,22,05,01,9.00
2007,10,22,05,02,9.00
2007,10,22,05,03,9.00
2007,10,22,05,04,9.00
2007,10,22,05,05,9.00
2007,10,22,05,06,9.00
2007,10,22,05,07,9.00
2007,10,22,05,08,9.00
2007,10,22,05,09,9.00
2007,10,22,05,10,9.00
2007,10,22,05,11,9.00
2007,10,22,05,12,9.00
2007,10,22,05,13,9.00
2007,10,22,05,14,9.00
2007,10,22,05,15,9.00
2007,10,22,05,16,9.00
2007,10,22,05,17,9.00
2007,10,22,05,18,9.00
2007,10,22,05,19,9.00
2007,10,22,05,20,9.00
2007,10,22,05,21,9.00
2007,10,22,05,22,9.00
2007,10,22,05,23,9.00
2007,10,22,05,24,9.00
2007,10,22,05,25,9.00
2007,10,22,05,26,9.00
2007,10,22,05,27,9.00
2007,10,22,05,28,9.10
2007,10,22,05,29,9.10
2007,10,22,05,30,9.10
2007,10,22,05,31,9.10
2007,10,22,05,32,9.10
2007,10,22,05,33,9.10
2007,10,22,05,34,9.10
2007,10,22,05,35,9.10
2007,10,22,05,36,9.10
2007,10,22,05,37,9.10
2007,10,22,05,38,9.10
2007,10,22,05,39,9.10
2007,10,22,05,40,9.10
2007,10,22,05,41,9.10
2007,10,22,05,42,9.10
2007,10,22,05,43,9.10
2007,10,22,05,44,9.10
2007,10,22,05,45,9.10
2007,10,22,05,46,9.10
2007,10,22,05,47,9.10
2007,10,22,05,48,9.10
2007,10,22,05,49,9.10
2007,10,22,05,50,9.10
2007,10,22,05,51,9.10
2007,10,22,05,52,9.10
2007,10,22,05,53,9.10
2007,10,22,05,54,9.10
2007,10,22,05,55,9.10
2007,10,22,05,56,9.10
2007,10,22,05,57,9.10
2007,10,22,05,58,9.10
2007,10,22,05,59,9.10
2007,10,22,06,00,9.10
2007,10,22,06,01,9.10
2007,10,22,06,02,9.10
2007,10,22,06,03,9.10
2007,10,22,06,04,9.10
2007,10,22,06,05,9.10
2007,10,22,06,06,9.10
2007,10,22,06,07,9.10
2007,10,22,06,08,9.10
2007,10,22,06,09,9.10
2007,10,22,06,10,9.10
2007,10,22,06,11,9.10
2007,10,22,06,12,9.10
2007,10,22,06,13,9.10
2007,10,22,06,14,9.10
2007,10,22,06,15,9.10
2007,10,22,06,16,9.10
2007,10,22,06,17,9.10
2007,10,22,06,18,9.10
2007,10,22,06,19,9.10
2007,10,22,06,20,9.10
2007,10,22,06,21,9.10
2007,10,22,06,22,9.10
2007,10,22,06,23,9.10
2007,10,22,06,24,9.10
2007,10,22,06,25,9.10
2007,10,22,06,26,9.10
2007,10,22,06,27,9.10
2007,10,22,06,28,9.10
2007,10,22,06,29,9.10
2007,10,22,06,30,9.10
2007,10,22,06,31,9.10
2007,10,22,06,32,9.10
2007,10,22,06,33,9.10
2007,10,22,06,34,9.10
2007,10,22,06,35,9.10
2007,10,22,06,36,9.10
2007,10,22,06,37,9.10
2007,10,22,06,38,9.10
2007,10,22,06,39,9.10
2007,10,22,06,40,9.10
2007,10,22,06,41,9.10
2007,10,22,06,42,9.10
2007,10,22,06,43,9.10
2007,10,22,06,44,9.10
2007,10,22,06,45,9.10
2007,10,22,06,46,9.10
2007,10,22,06,47,9.10
2007,10,22,06,48,9.10
2007,10,22,06,49,9.10
2007,10,22,06,50,9.10
2007,10,22,06,51,9.10
2007,10,22,06,52,9.10
2007,10,22,06,53,9.10
2007,10,22,06,54,9.10
2007,10,22,06,55,9.10
2007,10,22,06,56,9.10
2007,10,22,06,57,9.10
2007,10,22,06,58,9.10
2007,10,22,06,59,9.10
2007,10,22,07,00,9.10
2007,10,22,07,01,9.10
2007,10,22,07,02,9.10
2007,10,22,07,03,9.10
2007,10,22,07,04,9.10
2007,10,22,07,05,9.10
2007,10,22,07,06,9.10
2007,10,22,07,07,9.10
2007,10,22,07,08,9.10
2007,10,22,07,09,9.20
2007,10,22,07,10,9.20
2007,10,22,07,11,9.20
2007,10,22,07,12,9.20
2007,10,22,07,13,9.20
2007,10,22,07,14,9.20
2007,10,22,07,15,9.20
2007,10,22,07,16,9.20
2007,10,22,07,17,9.20
2007,10,22,07,18,9.20
2007,10,22,07,19,9.20
2007,10,22,07,20,9.20
2007,10,22,07,21,9.20
2007,10,22,07,22,9.20
2007,10,22,07,23,9.20
2007,10,22,07,24,9.20
2007,10,22,07,25,9.20
2007,10,22,07,26,9.20
2007,10,22,07,27,9.20
2007,10,22,07,28,9.20
2007,10,22,07,29,9.20
2007,10,22,07,30,9.20
2007,10,22,07,31,9.20
2007,10,22,07,32,9.20
2007,10,22,07,33,9.20
2007,10,22,07,34,9.20
2007,10,22,07,35,9.20
2007,10,22,07,36,9.20
2007,10,22,07,37,9.20
2007,10,22,07,38,9.20
2007,10,22,07,39,9.20
2007,10,22,07,40,9.20
2007,10,22,07,41,9.20
2007,10,22,07,42,9.20
2007,10,22,07,43,9.20
2007,10,22,07,44,9.20
2007,10,22,07,45,9.20
2007,10,22,07,46,9.30
2007,10,22,07,47,9.30
2007,10,22,07,48,9.30
2007,10,22,07,49,9.30
2007,10,22,07,50,9.30
2007,10,22,07,51,9.30
2007,10,22,07,52,9.30
2007,10,22,07,53,9.30
2007,10,22,07,54,9.30
2007,10,22,07,55,9.30
2007,10,22,07,56,9.30
2007,10,22,07,57,9.30
2007,10,22,07,58,9.30
2007,10,22,07,59,9.30
2007,10,22,08,00,9.30
2007,10,22,08,01,9.30
2007,10,22,08,02,9.30
2007,10,22,08,03,9.30
2007,10,22,08,04,9.30
2007,10,22,08,05,9.30
2007,10,22,08,06,9.30
2007,10,22,08,07,9.30
2007,10,22,08,08,9.30
2007,10,22,08,09,9.30
2007,10,22,08,10,9.30
2007,10,22,08,11,9.30
2007,10,22,08,12,9.30
2007,10,22,08,13,9.30
2007,10,22,08,14,9.30
2007,10,22,08,15,9.30
2007,10,22,08,16,9.30
2007,10,22,08,17,9.30
2007,10,22,08,18,9.30
2007,10,22,08,19,9.40
2007,10,22,08,20,9.40
2007,10,22,08,21,9.40
2007,10,22,08,22,9.40
2007,10,22,08,23,9.40
2007,10,22,08,24,9.40
2007,10,22,08,25,9.40
2007,10,22,08,26,9.40
2007,10,22,08,27,9.40
2007,10,22,08,28,9.40
2007,10,22,08,29,9.40
2007,10,22,08,30,9.40
2007,10,22,08,31,9.40
2007,10,22,08,32,9.40
2007,10,22,08,33,9.40
2007,10,22,08,34,9.40
2007,10,22,08,35,9.40
2007,10,22,08,36,9.40
2007,10,22,08,37,9.40
2007,10,22,08,38,9.40
2007,10,22,08,39,9.40
2007,10,22,08,40,9.40
2007,10,22,08,41,9.40
2007,10,22,08,42,9.40
2007,10,22,08,43,9.40
2007,10,22,08,44,9.40
2007,10,22,08,45,9.40
2007,10,22,08,46,9.40
2007,10,22,08,47,9.40
2007,10,22,08,48,9.50
2007,10,22,08,49,9.50
2007,10,22,08,50,9.50
2007,10,22,08,51,9.50
2007,10,22,08,52,9.50
2007,10,22,08,53,9.50
2007,10,22,08,54,9.60
2007,10,22,08,55,9.60
2007,10,22,08,56,9.60
2007,10,22,08,57,9.60
2007,10,22,08,58,9.60
2007,10,22,08,59,9.60
2007,10,22,09,00,9.60
2007,10,22,09,01,9.60
2007,10,22,09,02,9.60
2007,10,22,09,03,9.60
2007,10,22,09,04,9.60
2007,10,22,09,05,9.60
2007,10,22,09,06,9.70
2007,10,22,09,07,9.70
2007,10,22,09,08,9.70
2007,10,22,09,09,9.70
2007,10,22,09,10,9.70
2007,10,22,09,11,9.70
2007,10,22,09,12,9.70
2007,10,22,09,13,9.70
2007,10,22,09,14,9.70
2007,10,22,09,15,9.70
2007,10,22,09,16,9.80
2007,10,22,09,17,9.80
2007,10,22,09,18,9.80
2007,10,22,09,19,9.80
2007,10,22,09,20,9.80
2007,10,22,09,21,9.80
2007,10,22,09,22,9.80
2007,10,22,09,23,9.90
2007,10,22,09,24,9.90
2007,10,22,09,25,9.90
2007,10,22,09,26,9.90
2007,10,22,09,27,10.00
2007,10,22,09,28,10.00
2007,10,22,09,29,10.00
2007,10,22,09,30,10.00
2007,10,22,09,31,10.00
2007,10,22,09,32,10.10
2007,10,22,09,33,10.10
2007,10,22,09,34,10.10
2007,10,22,09,35,10.10
2007,10,22,09,36,10.10
2007,10,22,09,37,10.20
2007,10,22,09,38,10.20
2007,10,22,09,39,10.20
2007,10,22,09,40,10.20
2007,10,22,09,41,10.20
2007,10,22,09,42,10.20
2007,10,22,09,43,10.20
2007,10,22,09,44,10.20
2007,10,22,09,45,10.20
2007,10,22,09,46,10.20
2007,10,22,09,47,10.20
2007,10,22,09,48,10.20
2007,10,22,09,49,10.20
2007,10,22,09,50,10.20
2007,10,22,09,51,10.30
2007,10,22,09,52,10.30
2007,10,22,09,53,10.30
2007,10,22,09,54,10.30
2007,10,22,09,55,10.30
2007,10,22,09,56,10.40
2007,10,22,09,57,10.40
2007,10,22,09,58,10.50
2007,10,22,09,59,10.50
2007,10,22,10,00,10.50
2007,10,22,10,01,10.60
2007,10,22,10,02,10.60
2007,10,22,10,03,10.60
2007,10,22,10,04,10.60
2007,10,22,10,05,10.60
2007,10,22,10,06,10.60
2007,10,22,10,07,10.60
2007,10,22,10,08,10.70
2007,10,22,10,09,10.70
2007,10,22,10,10,10.70
2007,10,22,10,11,10.70
2007,10,22,10,12,10.70
2007,10,22,10,13,10.70
2007,10,22,10,14,10.70
2007,10,22,10,15,10.80
2007,10,22,10,16,10.80
2007,10,22,10,17,10.80
2007,10,22,10,18,10.80
2007,10,22,10,19,10.80
2007,10,22,10,20,10.80
2007,10,22,10,21,10.90
2007,10,22,10,22,10.90
2007,10,22,10,23,10.90
2007,10,22,10,24,10.90
2007,10,22,10,25,11.00
2007,10,22,10,26,11.00
2007,10,22,10,27,11.10
2007,10,22,10,28,11.10
2007,10,22,10,29,11.10
2007,10,22,10,30,11.10
2007,10,22,10,31,11.10
2007,10,22,10,32,11.20
2007,10,22,10,33,11.20
2007,10,22,10,34,11.20
2007,10,22,10,35,11.20
2007,10,22,10,36,11.20
2007,10,22,10,37,11.30
2007,10,22,10,38,11.30
2007,10,22,10,39,11.30
2007,10,22,10,40,11.30
2007,10,22,10,41,11.40
2007,10,22,10,42,11.40
2007,10,22,10,43,11.40
2007,10,22,10,44,11.40
2007,10,22,10,45,11.40
2007,10,22,10,46,11.40
2007,10,22,10,47,11.40
2007,10,22,10,48,11.40
2007,10,22,10,49,11.50
2007,10,22,10,50,11.50
2007,10,22,10,51,11.60
2007,10,22,10,52,11.60
2007,10,22,10,53,11.60
2007,10,22,10,54,11.60
2007,10,22,10,55,11.60
2007,10,22,10,56,11.70
2007,10,22,10,57,11.70
2007,10,22,10,58,11.70
2007,10,22,10,59,11.80
2007,10,22,11,00,11.80
2007,10,22,11,01,11.80
2007,10,22,11,02,11.80
2007,10,22,11,03,11.80
2007,10,22,11,04,11.90
2007,10,22,11,05,11.90
2007,10,22,11,06,12.00
2007,10,22,11,07,12.10
2007,10,22,11,08,12.10
2007,10,22,11,09,12.10
2007,10,22,11,10,12.20
2007,10,22,11,11,12.30
2007,10,22,11,12,12.30
2007,10,22,11,13,12.40
2007,10,22,11,14,12.50
2007,10,22,11,15,12.50
2007,10,22,11,16,12.50
2007,10,22,11,17,12.40
2007,10,22,11,18,12.30
2007,10,22,11,19,12.20
2007,10,22,11,20,12.20
2007,10,22,11,21,12.30
2007,10,22,11,22,12.30
2007,10,22,11,23,12.30
2007,10,22,11,24,12.30
2007,10,22,11,25,12.30
2007,10,22,11,26,12.20
2007,10,22,11,27,12.20
2007,10,22,11,28,12.20
2007,10,22,11,29,12.20
2007,10,22,11,30,12.30
2007,10,22,11,31,12.30
2007,10,22,11,32,12.30
2007,10,22,11,33,12.30
2007,10,22,11,34,12.30
2007,10,22,11,35,12.30
2007,10,22,11,36,12.30
2007,10,22,11,37,12.20
2007,10,22,11,38,12.20
2007,10,22,11,39,12.10
2007,10,22,11,40,12.10
2007,10,22,11,41,12.10
2007,10,22,11,42,12.10
2007,10,22,11,43,12.00
2007,10,22,11,44,12.00
2007,10,22,11,45,12.00
2007,10,22,11,46,11.90
2007,10,22,11,47,11.90
2007,10,22,11,48,11.90
2007,10,22,11,49,11.90
2007,10,22,11,50,11.90
2007,10,22,11,51,11.90
2007,10,22,11,52,11.90
2007,10,22,11,53,11.90
2007,10,22,11,54,11.90
2007,10,22,11,55,11.90
2007,10,22,11,56,11.90
2007,10,22,11,57,11.80
2007,10,22,11,58,11.80
2007,10,22,11,59,11.80
2007,10,22,12,00,11.80
2007,10,22,12,01,11.90
2007,10,22,12,02,11.90
2007,10,22,12,03,11.90
2007,10,22,12,04,12.00
2007,10,22,12,05,12.10
2007,10,22,12,06,12.10
2007,10,22,12,07,12.10
2007,10,22,12,08,12.20
2007,10,22,12,09,12.20
2007,10,22,12,10,12.30
2007,10,22,12,11,12.30
2007,10,22,12,12,12.30
2007,10,22,12,13,12.30
2007,10,22,12,14,12.20
2007,10,22,12,15,12.20
2007,10,22,12,16,12.20
2007,10,22,12,17,12.20
2007,10,22,12,18,12.10
2007,10,22,12,19,12.10
2007,10,22,12,20,12.10
2007,10,22,12,21,12.10
2007,10,22,12,22,12.10
2007,10,22,12,23,12.10
2007,10,22,12,24,12.00
2007,10,22,12,25,12.00
2007,10,22,12,26,11.90
2007,10,22,12,27,11.90
2007,10,22,12,28,11.80
2007,10,22,12,29,11.80
2007,10,22,12,30,11.70
2007,10,22,12,31,11.70
2007,10,22,12,32,11.70
2007,10,22,12,33,11.60
2007,10,22,12,34,11.60
2007,10,22,12,35,11.60
2007,10,22,12,36,11.50
2007,10,22,12,37,11.50
2007,10,22,12,38,11.40
2007,10,22,12,39,11.40
2007,10,22,12,40,11.40
2007,10,22,12,41,11.40
2007,10,22,12,42,11.40
2007,10,22,12,43,11.40
2007,10,22,12,44,11.40
2007,10,22,12,45,11.40
2007,10,22,12,46,11.40
2007,10,22,12,47,11.30
2007,10,22,12,48,11.30
2007,10,22,12,49,11.30
2007,10,22,12,50,11.30
2007,10,22,12,51,11.30
2007,10,22,12,52,11.30
2007,10,22,12,53,11.30
2007,10,22,12,54,11.30
2007,10,22,12,55,11.30
2007,10,22,12,56,11.40
2007,10,22,12,57,11.40
2007,10,22,12,58,11.40
2007,10,22,12,59,11.40
2007,10,22,13,00,11.50
2007,10,22,13,01,11.50
2007,10,22,13,02,11.50
2007,10,22,13,03,11.60
2007,10,22,13,04,11.60
2007,10,22,13,05,11.60
2007,10,22,13,06,11.70
2007,10,22,13,07,11.70
2007,10,22,13,08,11.70
2007,10,22,13,09,11.80
2007,10,22,13,10,11.80
2007,10,22,13,11,11.80
2007,10,22,13,12,11.80
2007,10,22,13,13,11.90
2007,10,22,13,14,11.90
2007,10,22,13,15,11.90
2007,10,22,13,16,11.90
2007,10,22,13,17,11.90
2007,10,22,13,18,11.90
2007,10,22,13,19,11.90
2007,10,22,13,20,11.90
2007,10,22,13,21,11.90
2007,10,22,13,22,11.80
2007,10,22,13,23,11.80
2007,10,22,13,24,11.90
2007,10,22,13,25,11.90
2007,10,22,13,26,11.80
2007,10,22,13,27,11.80
2007,10,22,13,28,11.80
2007,10,22,13,29,11.80
2007,10,22,13,30,11.80
2007,10,22,13,31,11.80
2007,10,22,13,32,11.80
2007,10,22,13,33,11.80
2007,10,22,13,34,11.80
2007,10,22,13,35,11.90
2007,10,22,13,36,11.90
2007,10,22,13,37,11.90
2007,10,22,13,38,12.00
2007,10,22,13,39,12.00
2007,10,22,13,40,12.00
2007,10,22,13,41,12.10
2007,10,22,13,42,12.10
2007,10,22,13,43,12.20
2007,10,22,13,44,12.20
2007,10,22,13,45,12.20
2007,10,22,13,46,12.20
2007,10,22,13,47,12.20
2007,10,22,13,48,12.20
2007,10,22,13,49,12.20
2007,10,22,13,50,12.20
2007,10,22,13,51,12.20
2007,10,22,13,52,12.20
2007,10,22,13,53,12.20
2007,10,22,13,54,12.20
2007,10,22,13,55,12.30
2007,10,22,13,56,12.30
2007,10,22,13,57,12.30
2007,10,22,13,58,12.20
2007,10,22,13,59,12.20
2007,10,22,14,00,12.10
2007,10,22,14,01,12.10
2007,10,22,14,02,12.10
2007,10,22,14,03,12.10
2007,10,22,14,04,12.10
2007,10,22,14,05,12.20
2007,10,22,14,06,12.20
2007,10,22,14,07,12.20
2007,10,22,14,08,12.20
2007,10,22,14,09,12.30
2007,10,22,14,10,12.30
2007,10,22,14,11,12.30
2007,10,22,14,12,12.40
2007,10,22,14,13,12.40
2007,10,22,14,14,12.40
2007,10,22,14,15,12.50
2007,10,22,14,16,12.50
2007,10,22,14,17,12.50
2007,10,22,14,18,12.50
2007,10,22,14,19,12.50
2007,10,22,14,20,12.60
2007,10,22,14,21,12.60
2007,10,22,14,22,12.60
2007,10,22,14,23,12.60
2007,10,22,14,24,12.60
2007,10,22,14,25,12.60
2007,10,22,14,26,12.70
2007,10,22,14,27,12.70
2007,10,22,14,28,12.70
2007,10,22,14,29,12.80
2007,10,22,14,30,12.80
2007,10,22,14,31,12.80
2007,10,22,14,32,12.80
2007,10,22,14,33,12.90
2007,10,22,14,34,12.90
2007,10,22,14,35,12.90
2007,10,22,14,36,12.90
2007,10,22,14,37,12.90
2007,10,22,14,38,13.00
2007,10,22,14,39,13.00
2007,10,22,14,40,13.10
2007,10,22,14,41,13.20
2007,10,22,14,42,13.20
2007,10,22,14,43,13.30
2007,10,22,14,44,13.30
2007,10,22,14,45,13.40
2007,10,22,14,46,13.40
2007,10,22,14,47,13.40
2007,10,22,14,48,13.50
2007,10,22,14,49,13.50
2007,10,22,14,50,13.50
2007,10,22,14,51,13.60
2007,10,22,14,52,13.60
2007,10,22,14,53,13.50
2007,10,22,14,54,13.40
2007,10,22,14,55,13.40
2007,10,22,14,56,13.30
2007,10,22,14,57,13.30
2007,10,22,14,58,13.20
2007,10,22,14,59,13.20
2007,10,22,15,00,13.20
2007,10,22,15,01,13.20
2007,10,22,15,02,13.20
2007,10,22,15,03,13.20
2007,10,22,15,04,13.20
2007,10,22,15,05,13.20
2007,10,22,15,06,13.20
2007,10,22,15,07,13.20
2007,10,22,15,08,13.20
2007,10,22,15,09,13.20
2007,10,22,15,10,13.20
2007,10,22,15,11,13.20
2007,10,22,15,12,13.20
2007,10,22,15,13,13.20
2007,10,22,15,14,13.20
2007,10,22,15,15,13.20
2007,10,22,15,16,13.20
2007,10,22,15,17,13.20
2007,10,22,15,18,13.30
2007,10,22,15,19,13.30
2007,10,22,15,20,13.30
2007,10,22,15,21,13.30
2007,10,22,15,22,13.30
2007,10,22,15,23,13.30
2007,10,22,15,24,13.20
2007,10,22,15,25,13.20
2007,10,22,15,26,13.20
2007,10,22,15,27,13.20
2007,10,22,15,28,13.20
2007,10,22,15,29,13.20
2007,10,22,15,30,13.20
2007,10,22,15,31,13.30
2007,10,22,15,32,13.30
2007,10,22,15,33,13.30
2007,10,22,15,34,13.30
2007,10,22,15,35,13.30
2007,10,22,15,36,13.30
2007,10,22,15,37,13.30
2007,10,22,15,38,13.30
2007,10,22,15,39,13.30
2007,10,22,15,40,13.30
2007,10,22,15,41,13.30
2007,10,22,15,42,13.20
2007,10,22,15,43,13.20
2007,10,22,15,44,13.20
2007,10,22,15,45,13.20
2007,10,22,15,46,13.20
2007,10,22,15,47,13.20
2007,10,22,15,48,13.20
2007,10,22,15,49,13.20
2007,10,22,15,50,13.20
2007,10,22,15,51,13.20
2007,10,22,15,52,13.20
2007,10,22,15,53,13.30
2007,10,22,15,54,13.30
2007,10,22,15,55,13.30
2007,10,22,15,56,13.30
2007,10,22,15,57,13.40
2007,10,22,15,58,13.40
2007,10,22,15,59,13.50
2007,10,22,16,00,13.50
2007,10,22,16,01,13.60
2007,10,22,16,02,13.60
2007,10,22,16,03,13.70
2007,10,22,16,04,13.80
2007,10,22,16,05,13.80
2007,10,22,16,06,13.80
2007,10,22,16,07,13.90
2007,10,22,16,08,14.00
2007,10,22,16,09,14.10
2007,10,22,16,10,14.10
2007,10,22,16,11,14.20
2007,10,22,16,12,14.20
2007,10,22,16,13,14.30
2007,10,22,16,14,14.30
2007,10,22,16,15,14.30
2007,10,22,16,16,14.30
2007,10,22,16,17,14.30
2007,10,22,16,18,14.30
2007,10,22,16,19,14.30
2007,10,22,16,20,14.30
2007,10,22,16,21,14.30
2007,10,22,16,22,14.20
2007,10,22,16,23,14.20
2007,10,22,16,24,14.20
2007,10,22,16,25,14.10
2007,10,22,16,26,14.10
2007,10,22,16,27,14.10
2007,10,22,16,28,14.20
2007,10,22,16,29,14.20
2007,10,22,16,30,14.20
2007,10,22,16,31,14.20
2007,10,22,16,32,14.10
2007,10,22,16,33,14.20
2007,10,22,16,34,14.20
2007,10,22,16,35,14.20
2007,10,22,16,36,14.20
2007,10,22,16,37,14.20
2007,10,22,16,38,14.30
2007,10,22,16,39,14.20
2007,10,22,16,40,14.20
2007,10,22,16,41,14.20
2007,10,22,16,42,14.10
2007,10,22,16,43,14.10
2007,10,22,16,44,14.10
2007,10,22,16,45,14.10
2007,10,22,16,46,14.00
2007,10,22,16,47,14.00
2007,10,22,16,48,14.00
2007,10,22,16,49,14.00
2007,10,22,16,50,14.00
2007,10,22,16,51,14.00
2007,10,22,16,52,13.90
2007,10,22,16,53,13.90
2007,10,22,16,54,13.90
2007,10,22,16,55,13.90
2007,10,22,16,56,13.90
2007,10,22,16,57,13.90
2007,10,22,16,58,13.90
2007,10,22,16,59,13.90
2007,10,22,17,00,13.90
2007,10,22,17,01,13.90
2007,10,22,17,02,13.90
2007,10,22,17,03,13.80
2007,10,22,17,04,13.80
2007,10,22,17,05,13.80
2007,10,22,17,06,13.80
2007,10,22,17,07,13.80
2007,10,22,17,08,13.80
2007,10,22,17,09,13.80
2007,10,22,17,10,13.80
2007,10,22,17,11,13.80
2007,10,22,17,12,13.80
2007,10,22,17,13,13.80
2007,10,22,17,14,13.80
2007,10,22,17,15,13.80
2007,10,22,17,16,13.80
2007,10,22,17,17,13.80
2007,10,22,17,18,13.70
2007,10,22,17,19,13.70
2007,10,22,17,20,13.70
2007,10,22,17,21,13.70
2007,10,22,17,22,13.70
2007,10,22,17,23,13.60
2007,10,22,17,24,13.60
2007,10,22,17,25,13.60
2007,10,22,17,26,13.50
2007,10,22,17,27,13.50
2007,10,22,17,28,13.50
2007,10,22,17,29,13.50
2007,10,22,17,30,13.40
2007,10,22,17,31,13.40
2007,10,22,17,32,13.40
2007,10,22,17,33,13.40
2007,10,22,17,34,13.40
2007,10,22,17,35,13.40
2007,10,22,17,36,13.40
2007,10,22,17,37,13.40
2007,10,22,17,38,13.40
2007,10,22,17,39,13.40
2007,10,22,17,40,13.30
2007,10,22,17,41,13.30
2007,10,22,17,42,13.30
2007,10,22,17,43,13.30
2007,10,22,17,44,13.30